H1 CPF 2 NER 2021 2 4 9 035 01 glonass137 H2 1705501 9137 42939 2021 2 4 0 0 0 2021 2 7 23 45 0 900 1 1 0 0 0 1 H9 10 0 59249 0.00000 0 -17018929.784 16274228.513 9822518.495 10 0 59249 900.00000 0 -16176533.529 15172013.090 12614586.914 10 0 59249 1800.00000 0 -15256917.706 13724391.236 15161803.077 10 0 59249 2700.00000 0 -14318401.954 11946975.933 17414750.947 10 0 59249 3600.00000 0 -13416712.482 9867857.249 19329729.336 10 0 59249 4500.00000 0 -12602559.452 7526676.391 20869595.283 10 0 59249 5400.00000 0 -11919443.804 4973223.256 22004480.227 10 0 59249 6300.00000 0 -11401785.428 2265614.698 22712365.712 10 0 59249 7200.00000 0 -11073450.896 -531871.655 22979507.978 10 0 59249 8100.00000 0 -10946742.205 -3351219.197 22800703.680 10 0 59249 9000.00000 0 -11021888.736 -6123250.415 22179391.809 10 0 59249 9900.00000 0 -11287063.675 -8780255.283 21127589.795 10 0 59249 10800.00000 0 -11718924.273 -11258562.044 19665664.791 10 0 59249 11700.00000 0 -12283653.499 -13500944.612 17821944.044 10 0 59249 12600.00000 0 -12938459.665 -15458767.341 15632171.263 10 0 59249 13500.00000 0 -13633471.271 -17093778.642 13138818.803 10 0 59249 14400.00000 0 -14313947.678 -18379479.327 10390268.246 10 0 59249 15300.00000 0 -14922712.582 -19302008.948 7439874.726 10 0 59249 16200.00000 0 -15402707.688 -19860513.554 4344932.753 10 0 59249 17100.00000 0 -15699558.508 -20066979.872 1165563.395 10 0 59249 18000.00000 0 -15764043.435 -19945543.284 -2036455.392 10 0 59249 18900.00000 0 -15554361.040 -19531299.249 -5198892.250 10 0 59249 19800.00000 0 -15038098.853 -18868668.753 -8260275.873 10 0 59249 20700.00000 0 -14193819.419 -18009387.304 -11161094.154 10 0 59249 21600.00000 0 -13012195.535 -17010202.916 -13844955.140 10 0 59249 22500.00000 0 -11496645.562 -15930380.791 -16259686.724 10 0 59249 23400.00000 0 -9663440.953 -14829120.471 -18358353.246 10 0 59249 24300.00000 0 -7541280.307 -13762994.816 -20100169.092 10 0 59249 25200.00000 0 -5170346.714 -12783518.942 -21451291.553 10 0 59249 26100.00000 0 -2600886.933 -11934951.639 -22385477.666 10 0 59249 27000.00000 0 108629.172 -11252421.676 -22884592.611 10 0 59249 27900.00000 0 2893693.037 -10760457.592 -22938960.136 10 0 59249 28800.00000 0 5686195.337 -10471982.412 -22547548.518 10 0 59249 29700.00000 0 8417016.781 -10387815.126 -21717988.724 10 0 59249 30600.00000 0 11018664.746 -10496699.379 -20466424.553 10 0 59249 31500.00000 0 13427846.687 -10775857.723 -18817197.697 10 0 59249 32400.00000 0 15587874.029 -11192047.636 -16802373.761 10 0 59249 33300.00000 0 17450797.189 -11703074.424 -14461118.262 10 0 59249 34200.00000 0 18979183.458 -12259696.887 -11838934.612 10 0 59249 35100.00000 0 20147464.402 -12807845.004 -8986778.750 10 0 59249 36000.00000 0 20942797.409 -13291055.707 -5960067.559 10 0 59249 36900.00000 0 21365406.218 -13653023.493 -2817600.484 10 0 59249 37800.00000 0 21428387.237 -13840157.745 379584.519 10 0 59249 38700.00000 0 21156990.846 -13804038.280 3569398.202 10 0 59249 39600.00000 0 20587408.896 -13503664.910 6689906.939 10 0 59249 40500.00000 0 19765120.391 -12907405.581 9680535.582 10 0 59249 41400.00000 0 18742865.799 -11994560.281 12483242.713 10 0 59249 42300.00000 0 17578335.893 -10756474.290 15043645.267 10 0 59249 43200.00000 0 16331672.778 -9197153.201 17312070.871 10 0 59249 44100.00000 0 15062888.365 -7333353.102 19244517.738 10 0 59249 45000.00000 0 13829308.752 -5194141.280 20803503.932 10 0 59249 45900.00000 0 12683151.495 -2819944.797 21958790.110 10 0 59249 46800.00000 0 11669337.001 -261125.502 22687962.382 10 0 59249 47700.00000 0 10823625.249 2423860.288 22976864.505 10 0 59249 48600.00000 0 10171155.350 5170642.133 22819871.515 10 0 59249 49500.00000 0 9725448.558 7911366.579 22219999.737 10 0 59249 50400.00000 0 9487916.081 10577279.162 21188850.997 10 0 59249 51300.00000 0 9447891.988 13101351.307 19746391.906 10 0 59249 52200.00000 0 9583189.640 15420844.025 17920571.947 10 0 59249 53100.00000 0 9861158.235 17479702.612 15746787.178 10 0 59249 54000.00000 0 10240195.081 19230683.391 13267199.167 10 0 59249 54900.00000 0 10671649.995 20637124.391 10529921.646 10 0 59249 55800.00000 0 11102041.589 21674286.326 7588090.099 10 0 59249 56700.00000 0 11475491.820 22330208.113 4498831.916 10 0 59249 57600.00000 0 11736275.710 22606041.291 1322156.907 10 0 59249 58500.00000 0 11831377.999 22515849.540 -1880210.127 10 0 59249 59400.00000 0 11712947.946 22085881.991 -5046031.779 10 0 59249 60300.00000 0 11340547.553 21353351.285 -8113771.550 10 0 59249 61200.00000 0 10683097.160 20364768.216 -11023794.235 10 0 59249 62100.00000 0 9720435.049 19173903.619 -13719529.260 10 0 59249 63000.00000 0 8444423.965 17839463.834 -16148573.874 10 0 59249 63900.00000 0 6859556.737 16422578.130 -18263714.256 10 0 59249 64800.00000 0 4983034.241 14984204.235 -20023844.572 10 0 59249 65700.00000 0 2844311.226 13582561.343 -21394766.092 10 0 59249 66600.00000 0 484127.958 12270698.602 -22349850.981 10 0 59249 67500.00000 0 -2046932.873 11094301.092 -22870558.184 10 0 59249 68400.00000 0 -4690304.710 10089825.055 -22946791.737 10 0 59249 69300.00000 0 -7381634.481 9283040.182 -22577094.859 10 0 59249 70200.00000 0 -10053228.012 8688039.451 -21768676.362 10 0 59249 71100.00000 0 -12636642.521 8306757.326 -20537268.986 10 0 59249 72000.00000 0 -15065318.860 8129015.772 -18906822.458 10 0 59249 72900.00000 0 -17277144.626 8133095.355 -16909037.173 10 0 59249 73800.00000 0 -19216842.012 8286806.596 -14582747.342 10 0 59249 74700.00000 0 -20838081.356 8549015.778 -11973165.487 10 0 59249 75600.00000 0 -22105232.861 8871560.211 -9131002.776 10 0 59249 76500.00000 0 -22994683.894 9201471.474 -6111482.242 10 0 59249 77400.00000 0 -23495667.421 9483412.218 -2973264.172 10 0 59249 78300.00000 0 -23610567.656 9662222.920 222695.269 10 0 59249 79200.00000 0 -23354690.903 9685470.431 3414329.735 10 0 59249 80100.00000 0 -22755512.067 9505889.996 6539669.253 10 0 59249 81000.00000 0 -21851429.305 9083617.024 9538043.896 10 0 59249 81900.00000 0 -20690079.933 8388113.758 12351260.979 10 0 59249 82800.00000 0 -19326288.976 7399708.988 14924732.710 10 0 59249 83700.00000 0 -17819737.000 6110685.282 17208532.572 10 0 59249 84600.00000 0 -16232445.331 4525867.201 19158360.190 10 0 59249 85500.00000 0 -14626184.184 2662684.998 20736396.381 10 0 59250 0.00000 0 -13059912.022 550710.159 21912032.404 10 0 59250 900.00000 0 -11587353.073 -1769319.361 22662459.982 10 0 59250 1800.00000 0 -10254813.187 -4246943.647 22973110.989 10 0 59250 2700.00000 0 -9099325.845 -6823837.773 22837939.024 10 0 59250 3600.00000 0 -8147203.567 -9436003.964 22259537.516 10 0 59250 4500.00000 0 -7413055.790 -12016209.745 21249092.050 10 0 59250 5400.00000 0 -6899313.046 -14496571.746 19826167.667 10 0 59250 6300.00000 0 -6596277.021 -16811178.888 18018334.708 10 0 59250 7200.00000 0 -6482693.953 -18898646.600 15860639.862 10 0 59250 8100.00000 0 -6526826.981 -20704496.408 13394931.907 10 0 59250 9000.00000 0 -6687982.106 -22183262.161 10669054.488 10 0 59250 9900.00000 0 -6918423.292 -23300235.093 7735921.029 10 0 59250 10800.00000 0 -7165595.666 -24032774.930 4652489.275 10 0 59250 11700.00000 0 -7374562.540 -24371132.099 1478655.184 10 0 59250 12600.00000 0 -7490552.792 -24318746.523 -1723912.239 10 0 59250 13500.00000 0 -7461510.118 -23892010.482 -4892972.199 10 0 59250 14400.00000 0 -7240535.487 -23119505.595 -7966925.687 10 0 59250 15300.00000 0 -6788118.472 -22040746.188 -10886017.083 10 0 59250 16200.00000 0 -6074062.011 -20704482.238 -13593499.855 10 0 59250 17100.00000 0 -5079018.053 -19166633.573 -16036743.183 10 0 59250 18000.00000 0 -3795568.129 -17487942.616 -18168257.534 10 0 59250 18900.00000 0 -2228802.057 -15731444.635 -19946619.068 10 0 59250 19800.00000 0 -396369.206 -13959861.916 -21337274.949 10 0 59250 20700.00000 0 1672000.931 -12233031.320 -22313214.005 10 0 59250 21600.00000 0 3935489.963 -10605472.909 -22855490.052 10 0 59250 22500.00000 0 6343653.181 -9124201.165 -22953588.071 10 0 59250 23400.00000 0 8838293.355 -7826869.956 -22605626.442 10 0 59250 24300.00000 0 11355668.466 -6740328.154 -21818391.603 10 0 59250 25200.00000 0 13828942.164 -5879645.499 -20607204.599 10 0 59250 26100.00000 0 16190775.454 -5247648.590 -18995622.153 10 0 59250 27000.00000 0 18375952.241 -4834985.340 -17014977.990 10 0 59250 27900.00000 0 20323929.807 -4620714.158 -14703773.123 10 0 59250 28800.00000 0 21981208.205 -4573392.040 -12106926.829 10 0 59250 29700.00000 0 23303420.071 -4652614.759 -9274902.717 10 0 59250 30600.00000 0 24257053.918 -4810943.300 -6262726.761 10 0 59250 31500.00000 0 24820739.176 -4996134.388 -3128916.541 10 0 59250 32400.00000 0 24986039.657 -5153580.107 65657.334 10 0 59250 33300.00000 0 24757722.712 -5228852.743 3258955.279 10 0 59250 34200.00000 0 24153493.358 -5170246.619 6388974.776 10 0 59250 35100.00000 0 23203205.153 -4931208.838 9394954.719 10 0 59250 36000.00000 0 21947581.553 -4472555.601 12218554.433 10 0 59250 36900.00000 0 20436501.919 -3764379.962 14804984.279 10 0 59250 37800.00000 0 18726924.490 -2787569.971 17104066.003 10 0 59250 38700.00000 0 16880533.557 -1534872.523 19071202.562 10 0 59250 39600.00000 0 14961209.426 -11457.504 20668238.955 10 0 59250 40500.00000 0 13032426.769 1765042.398 21864198.005 10 0 59250 41400.00000 0 11154689.624 3765018.961 22635877.435 10 0 59250 42300.00000 0 9383109.602 5947883.520 22968297.213 10 0 59250 43200.00000 0 7765227.546 8263529.690 22854989.005 10 0 59250 44100.00000 0 6339168.669 10654204.101 22298122.350 10 0 59250 45000.00000 0 5132207.320 13056708.509 21308465.147 10 0 59250 45900.00000 0 4159800.400 15404842.927 19905179.006 10 0 59250 46800.00000 0 3425129.029 17631989.171 18115452.887 10 0 59250 47700.00000 0 2919166.976 19673728.116 15973981.556 10 0 59250 48600.00000 0 2621272.377 21470382.242 13522298.209 10 0 59250 49500.00000 0 2500277.358 22969377.852 10807973.432 10 0 59250 50400.00000 0 2516029.316 24127328.351 7883695.488 10 0 59250 51300.00000 0 2621318.438 24911751.448 4806249.325 10 0 59250 52200.00000 0 2764109.622 25302348.171 1635413.890 10 0 59250 53100.00000 0 2889983.935 25291789.744 -1567200.679 10 0 59250 54000.00000 0 2944685.663 24885979.081 -4739353.124 10 0 59250 54900.00000 0 2876666.315 24103775.691 -7819384.618 10 0 59250 55800.00000 0 2639517.069 22976195.430 -10747421.525 10 0 59250 56700.00000 0 2194185.635 21545118.812 -13466543.419 10 0 59250 57600.00000 0 1510882.742 19861562.209 -15923893.141 10 0 59250 58500.00000 0 570596.595 17983584.777 -18071706.817 10 0 59250 59400.00000 0 -633849.756 15973919.152 -19868243.675 10 0 59250 60300.00000 0 -2097243.822 13897425.360 -21278597.569 10 0 59250 61200.00000 0 -3801956.263 11818474.698 -22275374.529 10 0 59250 62100.00000 0 -5718442.903 9798372.930 -22839223.538 10 0 59250 63000.00000 0 -7806256.220 7892930.187 -22959210.553 10 0 59250 63900.00000 0 -10015524.858 6150278.698 -22633028.838 10 0 59250 64800.00000 0 -12288840.311 4609028.736 -21867041.838 10 0 59250 65700.00000 0 -14563472.754 3296838.904 -20676157.895 10 0 59250 66600.00000 0 -16773824.215 2229459.506 -19083539.331 10 0 59250 67500.00000 0 -18854017.296 1410287.830 -17120151.419 10 0 59250 68400.00000 0 -20740511.866 830452.674 -14824159.867 10 0 59250 69300.00000 0 -22374640.724 469423.383 -12240188.355 10 0 59250 70200.00000 0 -23704958.552 296116.481 -9418450.386 10 0 59250 71100.00000 0 -24689306.115 270452.174 -6413772.242 10 0 59250 72000.00000 0 -25296503.414 345293.985 -3284526.112 10 0 59250 72900.00000 0 -25507601.057 468688.672 -91494.347 10 0 59250 73800.00000 0 -25316637.649 586310.842 3103312.918 10 0 59250 74700.00000 0 -24730871.666 644008.188 6237863.275 10 0 59250 75600.00000 0 -23770478.464 590338.977 9251307.054 10 0 59250 76500.00000 0 -22467725.486 378993.923 12085158.123 10 0 59250 77400.00000 0 -20865660.583 -29000.407 14684427.391 10 0 59250 78300.00000 0 -19016368.718 -663390.223 16998687.081 10 0 59250 79200.00000 0 -16978870.107 -1543195.437 18983045.425 10 0 59250 80100.00000 0 -14816747.740 -2675666.599 20599013.218 10 0 59250 81000.00000 0 -12595603.112 -4055742.403 21815246.061 10 0 59250 81900.00000 0 -10380445.857 -5666031.416 22608148.516 10 0 59250 82800.00000 0 -8233125.546 -7477319.783 22962329.027 10 0 59250 83700.00000 0 -6209911.790 -9449584.843 22870897.277 10 0 59250 84600.00000 0 -4359322.497 -11533473.641 22335598.496 10 0 59250 85500.00000 0 -2720289.828 -13672185.842 21366782.120 10 0 59251 0.00000 0 -1320739.234 -15803683.844 19983205.258 10 0 59251 900.00000 0 -176640.032 -17863139.133 18211674.004 10 0 59251 1800.00000 0 708434.194 -19785513.678 16086529.578 10 0 59251 2700.00000 0 1343216.691 -21508169.228 13648987.659 10 0 59251 3600.00000 0 1748135.962 -22973396.401 10946343.639 10 0 59251 4500.00000 0 1954206.726 -24130757.382 8031058.317 10 0 59251 5400.00000 0 2001471.247 -24939144.388 4959741.411 10 0 59251 6300.00000 0 1937057.205 -25368467.182 1792052.356 10 0 59251 7200.00000 0 1812934.741 -25400898.377 -1410460.123 10 0 59251 8100.00000 0 1683468.232 -25031623.748 -4585556.863 10 0 59251 9000.00000 0 1602867.179 -24269065.512 -7671521.774 10 0 59251 9900.00000 0 1622644.923 -23134568.793 -10608365.745 10 0 59251 10800.00000 0 1789193.742 -21661564.140 -13338996.957 10 0 59251 11700.00000 0 2141579.871 -19894241.097 -15810334.330 10 0 59251 12600.00000 0 2709652.655 -17885788.435 -17974341.954 10 0 59251 13500.00000 0 3512548.722 -15696274.860 -19788964.234 10 0 59251 14400.00000 0 4557655.213 -13390258.904 -21218943.549 10 0 59251 15300.00000 0 5840076.733 -11034228.033 -22236504.658 10 0 59251 16200.00000 0 7342629.339 -8693973.797 -22821892.864 10 0 59251 17100.00000 0 9036362.801 -6432012.269 -22963755.871 10 0 59251 18000.00000 0 10881590.050 -4305156.986 -22659362.206 10 0 59251 18900.00000 0 12829381.560 -2362344.863 -21914652.320 10 0 59251 19800.00000 0 14823462.926 -642804.853 -20744121.499 10 0 59251 20700.00000 0 16802436.856 825355.212 -19170536.916 10 0 59251 21600.00000 0 18702237.284 2026085.873 -17224494.281 10 0 59251 22500.00000 0 20458713.388 2955819.473 -14943822.477 10 0 59251 23400.00000 0 22010235.675 3623363.388 -12372847.637 10 0 59251 24300.00000 0 23300215.225 4049268.962 -9561530.789 10 0 59251 25200.00000 0 24279430.689 4264704.015 -6564495.733 10 0 59251 26100.00000 0 24908065.451 4309877.682 -3439966.138 10 0 59251 27000.00000 0 25157369.536 4232085.174 -248632.705 10 0 59251 27900.00000 0 25010876.532 4083456.129 2947527.393 10 0 59251 28800.00000 0 24465124.428 3918502.552 6086455.403 10 0 59251 29700.00000 0 23529850.235 3791570.825 9107216.505 10 0 59251 30600.00000 0 22227650.249 3754306.166 11951182.323 10 0 59251 31500.00000 0 20593120.364 3853237.182 14563167.232 10 0 59251 32400.00000 0 18671512.437 4127583.015 16892496.515 10 0 59251 33300.00000 0 16516962.919 4607375.981 18893985.893 10 0 59251 34200.00000 0 14190367.636 5311979.218 20528813.798 10 0 59251 35100.00000 0 11756991.086 6249062.210 21765270.063 10 0 59251 36000.00000 0 9283909.374 7414077.843 22579367.147 10 0 59251 36900.00000 0 6837392.657 8790263.664 22955302.599 10 0 59251 37800.00000 0 4480335.137 10349168.207 22885764.307 10 0 59251 38700.00000 0 2269838.499 12051681.461 22372072.897 10 0 59251 39600.00000 0 255048.344 13849527.481 21424158.559 10 0 59251 40500.00000 0 -1524667.458 15687157.983 20060372.540 10 0 59251 41400.00000 0 -3041123.695 17503968.943 18307136.491 10 0 59251 42300.00000 0 -4278248.338 19236748.494 16198435.834 10 0 59251 43200.00000 0 -5232500.753 20822254.570 13775166.245 10 0 59251 44100.00000 0 -5912760.926 22199814.922 11084345.137 10 0 59251 45000.00000 0 -6339695.040 23313840.794 8178202.869 10 0 59251 45900.00000 0 -6544624.810 24116148.735 5113170.819 10 0 59251 46800.00000 0 -6567948.875 24567992.802 1948785.737 10 0 59251 47700.00000 0 -6457183.477 24641721.165 -1253468.242 10 0 59251 48600.00000 0 -6264705.965 24321986.839 -4431357.152 10 0 59251 49500.00000 0 -6045297.306 23606460.891 -7523110.605 10 0 59251 50400.00000 0 -5853588.394 22506017.460 -10468626.774 10 0 59251 51300.00000 0 -5741519.109 21044382.184 -13210644.943 10 0 59251 52200.00000 0 -5755918.519 19257258.301 -15695862.302 10 0 59251 53100.00000 0 -5936309.413 17190966.783 -17875972.771 10 0 59251 54000.00000 0 -6313030.785 14900657.172 -19708607.477 10 0 59251 54900.00000 0 -6905758.333 12448163.826 -21158158.567 10 0 59251 55800.00000 0 -7722486.073 9899597.035 -22196470.464 10 0 59251 56700.00000 0 -8759012.713 7322769.300 -22803385.441 10 0 59251 57600.00000 0 -9998955.070 4784563.782 -22967133.273 10 0 59251 58500.00000 0 -11414288.631 2348354.113 -22684557.740 10 0 59251 59400.00000 0 -12966393.225 71582.415 -21961175.905 10 0 59251 60300.00000 0 -14607560.617 -1996404.509 -20811069.176 10 0 59251 61200.00000 0 -16282901.332 -3816171.556 -19256608.351 10 0 59251 62100.00000 0 -17932571.331 -5359589.735 -17328017.926 10 0 59251 63000.00000 0 -19494225.622 -6610751.718 -15062787.938 10 0 59251 63900.00000 0 -20905596.159 -7566371.533 -12504944.652 10 0 59251 64800.00000 0 -22107086.079 -8235653.147 -9704194.065 10 0 59251 65700.00000 0 -23044271.455 -8639634.867 -6714954.782 10 0 59251 66600.00000 0 -23670205.401 -8810038.487 -3595299.149 10 0 59251 67500.00000 0 -23947427.619 -8787672.979 -405823.357 10 0 59251 68400.00000 0 -23849594.773 -8620461.249 2791531.268 10 0 59251 69300.00000 0 -23362662.990 -8361174.289 5934682.486 10 0 59251 70200.00000 0 -22485572.629 -8064969.367 8962613.157 10 0 59251 71100.00000 0 -21230406.405 -7786837.002 11816555.396 10 0 59251 72000.00000 0 -19622014.092 -7579065.119 14441129.639 10 0 59251 72900.00000 0 -17697119.345 -7488827.908 16785416.608 10 0 59251 73800.00000 0 -15502945.744 -7556001.430 18803941.615 10 0 59251 74700.00000 0 -13095419.195 -7811298.242 20457552.477 10 0 59251 75600.00000 0 -10537021.192 -8274799.869 21714174.608 10 0 59251 76500.00000 0 -7894381.746 -8954949.108 22549429.291 10 0 59251 77400.00000 0 -5235711.448 -9848044.910 22947103.676 10 0 59251 78300.00000 0 -2628178.491 -10938261.604 22899463.942 10 0 59251 79200.00000 0 -135338.631 -12198192.428 22407405.828 10 0 59251 80100.00000 0 2185276.190 -13589895.446 21480439.642 10 0 59251 81000.00000 0 4284311.407 -15066399.050 20136509.883 10 0 59251 81900.00000 0 6122397.172 -16573605.052 18401652.455 10 0 59251 82800.00000 0 7671535.083 -18052510.535 16309495.532 10 0 59251 83700.00000 0 8916007.473 -19441656.209 13900613.009 10 0 59251 84600.00000 0 9852772.115 -20679699.145 11221742.281 10 0 59251 85500.00000 0 10491326.531 -21708002.196 8324880.972 10 0 59252 0.00000 0 10853048.373 -22473131.354 5266279.678 10 0 59252 900.00000 0 10970040.296 -22929155.459 2105349.648 10 0 59252 1800.00000 0 10883528.721 -23039651.857 -1096492.292 10 0 59252 2700.00000 0 10641884.657 -22779331.155 -4277020.200 10 0 59252 3600.00000 0 10298351.138 -22135213.689 -7374412.208 10 0 59252 4500.00000 0 9908573.977 -21107305.916 -10328456.520 10 0 59252 5400.00000 0 9528041.163 -19708748.033 -13081726.176 10 0 59252 6300.00000 0 9209540.014 -17965425.604 -15580699.150 10 0 59252 7200.00000 0 9000740.324 -15915060.912 -17776801.528 10 0 59252 8100.00000 0 8942006.365 -13605821.548 -19627353.256 10 0 59252 9000.00000 0 9064530.750 -11094503.966 -21096398.065 10 0 59252 9900.00000 0 9388869.382 -8444367.628 -22155401.521 10 0 59252 10800.00000 0 9923939.726 -5722709.674 -22783803.970 10 0 59252 11700.00000 0 10666524.985 -2998280.751 -22969417.977 10 0 59252 12600.00000 0 11601305.402 -338649.203 -22708662.902 10 0 59252 13500.00000 0 12701415.765 2192377.380 -22006632.368 10 0 59252 14400.00000 0 13929506.069 4537166.752 -20876993.507 10 0 59252 15300.00000 0 15239261.132 6646413.071 -19341719.985 10 0 59252 16200.00000 0 16577315.681 8480935.929 -17430663.989 10 0 59252 17100.00000 0 17885484.781 10013053.543 -15180975.268 10 0 59252 18000.00000 0 19103216.068 11227473.973 -12636378.408 10 0 59252 18900.00000 0 20170160.813 12121668.476 -9846322.206 10 0 59252 19800.00000 0 21028755.738 12705712.770 -6865017.559 10 0 59252 20700.00000 0 21626706.794 13001604.197 -3750382.663 10 0 59252 21600.00000 0 21919270.219 13042084.917 -562916.164 10 0 59252 22500.00000 0 21871234.582 12869021.936 2635479.641 10 0 59252 23400.00000 0 21458520.066 12531413.424 5782702.226 10 0 59252 24300.00000 0 20669327.410 12083106.449 8817655.270 10 0 59252 25200.00000 0 19504787.802 11580323.281 11681434.355 10 0 59252 26100.00000 0 17979086.094 11079101.310 14318468.753 10 0 59252 27000.00000 0 16119051.759 10632755.053 16677597.142 10 0 59252 27900.00000 0 13963234.224 10289467.516 18713056.680 10 0 59252 28800.00000 0 11560500.753 10090112.569 20385366.547 10 0 59252 29700.00000 0 8968214.725 10066400.015 21662089.432 10 0 59252 30600.00000 0 6250069.451 10239421.421 22518456.817 10 0 59252 31500.00000 0 3473666.834 10618657.861 22937846.487 10 0 59252 32400.00000 0 707940.509 11201491.449 22912103.558 10 0 59252 33300.00000 0 -1979470.633 11973241.483 22441699.085 10 0 59252 34200.00000 0 -4524790.487 12907724.188 21535723.230 10 0 59252 35100.00000 0 -6870509.893 13968313.252 20211712.967 10 0 59252 36000.00000 0 -8967528.078 15109457.438 18495317.183 10 0 59252 36900.00000 0 -10776943.255 16278592.362 16419805.064 10 0 59252 37800.00000 0 -12271418.699 17418366.916 14025426.576 10 0 59252 38700.00000 0 -13436068.154 18469091.362 11358636.622 10 0 59252 39600.00000 0 -14268824.179 19371304.503 8471197.364 10 0 59252 40500.00000 0 -14780274.726 20068351.956 5419175.584 10 0 59252 41400.00000 0 -14992975.447 20508866.722 2261854.298 10 0 59252 42300.00000 0 -14940267.273 20649046.991 -939420.149 10 0 59252 43200.00000 0 -14664649.776 20454634.405 -4122432.899 10 0 59252 44100.00000 0 -14215779.673 19902508.450 -7225313.599 10 0 59252 45000.00000 0 -13648179.706 18981828.736 -10187743.392 10 0 59252 45900.00000 0 -13018755.509 17694676.014 -12952131.815 10 0 59252 46800.00000 0 -12384226.114 16056163.896 -15464740.151 10 0 59252 47700.00000 0 -11798577.386 14094015.675 -17676728.897 10 0 59252 48600.00000 0 -11310646.509 11847623.161 -19545108.774 10 0 59252 49500.00000 0 -10961939.978 9366626.155 -21033576.724 10 0 59252 50400.00000 0 -10784777.466 6709071.392 -22113220.759 10 0 59252 51300.00000 0 -10800840.019 3939227.193 -22763080.258 10 0 59252 52200.00000 0 -11020183.844 1125144.294 -22970551.187 10 0 59252 53100.00000 0 -11440761.277 -1663936.061 -22731628.725 10 0 59252 54000.00000 0 -12048469.085 -4360219.640 -22050982.900 10 0 59252 54900.00000 0 -12817722.139 -6899933.401 -20941865.987 10 0 59252 55800.00000 0 -13712528.346 -9225729.977 -19425853.532 10 0 59252 56700.00000 0 -14688019.708 -11288823.402 -17532424.006 10 0 59252 57600.00000 0 -15692375.177 -13050768.122 -15298385.094 10 0 59252 58500.00000 0 -16669054.389 -14484808.155 -12767157.616 10 0 59252 59400.00000 0 -17559248.258 -15576741.263 -9987930.835 10 0 59252 60300.00000 0 -18304443.083 -16325263.252 -7014705.428 10 0 59252 61200.00000 0 -18848989.969 -16741779.198 -3905242.816 10 0 59252 62100.00000 0 -19142570.971 -16849690.855 -719941.384 10 0 59252 63000.00000 0 -19142457.686 -16683191.474 2479338.352 10 0 59252 63900.00000 0 -18815466.671 -16285619.897 5630476.373 10 0 59252 64800.00000 0 -18139528.885 -15707444.404 8672299.958 10 0 59252 65700.00000 0 -17104806.570 -15003962.133 11545770.915 10 0 59252 66600.00000 0 -15714310.114 -14232811.822 14195130.008 10 0 59252 67500.00000 0 -13983988.422 -13451405.164 16568976.396 10 0 59252 68400.00000 0 -11942288.343 -12714385.273 18621261.379 10 0 59252 69300.00000 0 -9629200.912 -12071219.341 20312177.516 10 0 59252 70200.00000 0 -7094833.456 -11564026.657 21608926.447 10 0 59252 71100.00000 0 -4397566.109 -11225733.114 22486351.165 10 0 59252 72000.00000 0 -1601868.555 -11078629.481 22927421.025 10 0 59252 72900.00000 0 1224133.356 -11133393.817 22923560.646 10 0 59252 73800.00000 0 4011241.260 -11388618.943 22474816.605 10 0 59252 74700.00000 0 6691812.002 -11830864.923 21589858.798 10 0 59252 75600.00000 0 9202321.561 -12435234.549 20285816.239 10 0 59252 76500.00000 0 11485759.757 -13166448.118 18587950.054 10 0 59252 77400.00000 0 13493757.099 -13980372.814 16529169.386 10 0 59252 78300.00000 0 15188356.145 -14825942.947 14149398.871 10 0 59252 79200.00000 0 16543354.225 -15647390.726 11494809.164 10 0 59252 80100.00000 0 17545162.036 -16386693.943 8616924.840 10 0 59252 81000.00000 0 18193142.747 -16986137.497 5571626.454 10 0 59252 81900.00000 0 18499417.911 -17390880.569 2418065.870 10 0 59252 82800.00000 0 18488148.825 -17551420.660 -782484.026 10 0 59252 83700.00000 0 18194324.151 -17425849.761 -3967822.625 10 0 59252 84600.00000 0 17662105.492 -16981806.502 -7076034.313 10 0 59252 85500.00000 0 16942801.335 -16198040.816 -10046696.337 99